East Milton, MA

11:09 AM EDT on October 18, 2017 (GMT -0400)
East Milton

Weather History for KMQE - December, 2013

Change the Weather History Date:

Sunday, December 15, 2013

  Actual Average (KOWD) Record (KOWD)
Temperature  
Mean Temperature 28 °F -  
Max Temperature 36 °F 40 °F 63 °F (2008)
Min Temperature 19 °F 23 °F -2 °F (2005)
Degree Days  
Heating Degree Days 38    
Moisture  
Dew Point 25 °F    
Average Humidity 93    
Maximum Humidity 100    
Minimum Humidity 81    
Precipitation  
Precipitation 1.03 in - - ()
Sea Level Pressure  
Sea Level Pressure 29.64 in    
Wind  
Wind Speed 21 mph (NW)    
Max Wind Speed 33 mph    
Max Gust Speed 47 mph    
Averages and records for this station are not official NWS values.
T = Trace of Precipitation, MM = Missing Value Source: NWS Daily Summary

Daily Weather History Graph

Daily Weather History Graph

Search for Another Location

Airport or City:

Trip Planner

Search our weather history database for the weather conditions in past years. The results will help you decide how hot, cold, wet, or windy it might be!

Date:

Astronomy

Dec. 15, 2013 Rise Set
Actual Time 7:06 AM EST 4:13 PM EST
Civil Twilight 6:34 AM EST 4:45 PM EST
Nautical Twilight 5:59 AM EST 5:20 PM EST
Astronomical Twilight 5:24 AM EST 5:54 PM EST
Moon 3:16 PM EST (12/15) 5:18 AM EST (12/15)
Length of Visible Light 10h 10m
Length of Day
9h 06m
Waxing Gibbous, 97% of the Moon is Illuminated
Dec 15
Waxing Gibbous
Dec 17
Full
Dec 25
Last Quarter
Jan 1
New
Jan 7
First Quarter

Hourly Weather History & Observations

Time (EST) Temp. Windchill Dew Point Humidity Pressure Visibility Wind Dir Wind Speed Gust Speed Precip Events Conditions
12:54 AM 28.9 °F 16.1 °F 28.0 °F 96% 30.07 in - East 19.6 mph 32.2 mph 0.10 in   Unknown
1:54 AM 30.0 °F 16.0 °F 28.9 °F 96% 29.98 in - East 25.3 mph 35.7 mph 0.08 in   Unknown
2:54 AM 30.9 °F 18.1 °F 30.0 °F 96% 29.91 in - East 21.9 mph 35.7 mph 0.11 in   Unknown
3:54 AM 32.0 °F 17.6 °F 30.9 °F 96% 29.76 in - East 29.9 mph 40.3 mph 0.13 in   Unknown
4:54 AM 33.1 °F 18.4 °F 32.0 °F 96% 29.63 in - East 33.4 mph 47.2 mph 0.19 in   Unknown
5:54 AM 35.1 °F 23.0 °F 35.1 °F 100% 29.57 in - ENE 24.2 mph 44.9 mph 0.22 in   Unknown
6:54 AM 36.0 °F 23.9 °F 35.1 °F 97% 29.52 in - NE 25.3 mph 42.6 mph 0.09 in   Unknown
7:54 AM 36.0 °F 25.3 °F 36.0 °F 100% 29.43 in - NNE 19.6 mph 35.7 mph 0.04 in   Unknown
8:54 AM 34.0 °F 22.4 °F 34.0 °F 100% 29.41 in - North 20.7 mph 31.1 mph 0.06 in   Unknown
9:54 AM 23.0 °F 8.3 °F 23.0 °F 100% 29.46 in - NW 19.6 mph 27.6 mph 0.01 in   Unknown
10:54 AM 19.9 °F 4.8 °F 19.0 °F 96% 29.44 in - NNW 18.4 mph 33.4 mph N/A   Unknown
11:54 AM 21.0 °F 7.6 °F 19.9 °F 96% 29.45 in - NW 15.0 mph 21.9 mph N/A   Unknown
12:54 PM 21.0 °F 7.1 °F 19.9 °F 96% 29.47 in - NW 16.1 mph 24.2 mph N/A   Unknown
1:54 PM 21.9 °F 8.2 °F 21.0 °F 96% 29.49 in - NW 16.1 mph - N/A   Unknown
2:54 PM 25.0 °F 14.2 °F 23.0 °F 92% 29.54 in - WNW 11.5 mph - N/A   Unknown
3:54 PM 25.0 °F 13.6 °F 23.0 °F 92% 29.57 in - West 12.7 mph - N/A   Unknown
4:54 PM 25.0 °F 12.6 °F 23.0 °F 92% 29.62 in - West 15.0 mph - N/A   Unknown
5:54 PM 24.1 °F 10.6 °F 21.9 °F 91% 29.63 in - West 17.3 mph 25.3 mph N/A   Unknown
6:54 PM 25.0 °F 11.7 °F 21.9 °F 88% 29.67 in - West 17.3 mph 26.5 mph N/A   Unknown
7:54 PM 25.0 °F 11.7 °F 21.9 °F 88% 29.70 in - West 17.3 mph 24.2 mph N/A   Unknown
8:54 PM 24.1 °F 10.1 °F 19.9 °F 84% 29.73 in - West 18.4 mph 24.2 mph N/A   Unknown
9:54 PM 24.1 °F 10.1 °F 19.0 °F 81% 29.75 in - West 18.4 mph - N/A   Unknown
10:54 PM 23.0 °F 10.1 °F 18.0 °F 81% 29.76 in - WSW 15.0 mph - N/A   Unknown
11:54 PM 23.0 °F 10.1 °F 18.0 °F 81% 29.78 in - WSW 15.0 mph 20.7 mph N/A   Unknown